This is the latest recevied weather packets stored in our database for station/object KD7AWQ. If no packets are shown the sender has not sent any weather packets the latest 10 day(s).
| Time | Temp. | Humidity | Pressure | Rain* | Wind** | Luminosity | Snow |
|---|---|---|---|---|---|---|---|
| 1787666382 | 30° C | 26% | 1189.7 hPa | 0 mm | - | 111 W/m² | - |
| 1787666078 | 29.44° C | 27% | 1189.8 hPa | 0 mm | - | 98 W/m² | - |
| 1787665773 | 28.89° C | 27% | 1189.8 hPa | 0 mm | - | 82 W/m² | - |
| 1787665468 | 29.44° C | 27% | 1189.6 hPa | 0 mm | - | 69 W/m² | - |
| 1787665167 | 30° C | 26% | 1189.8 hPa | 0 mm | - | 61 W/m² | - |
| 1787664860 | 29.44° C | 26% | 1189.3 hPa | 0 mm | - | 51 W/m² | - |
| 1787664560 | 29.44° C | 26% | 1189.8 hPa | 0 mm | - | 43 W/m² | - |
| 1787664255 | 28.89° C | 26% | 1189.2 hPa | 0 mm | - | 35 W/m² | - |
| 1787663954 | 28.89° C | 27% | 1189.3 hPa | 0 mm | - | 29 W/m² | - |
| 1787663649 | 28.33° C | 27% | 1189.5 hPa | 0 mm | - | 23 W/m² | - |
| 1787663344 | 28.33° C | 28% | 1189.2 hPa | 0 mm | - | 19 W/m² | - |
| 1787663041 | 28.33° C | 28% | 1189.1 hPa | 0 mm | - | 14 W/m² | - |
| 1787662741 | 28.33° C | 28% | 1189.1 hPa | 0 mm | - | 10 W/m² | - |
| 1787662435 | 27.78° C | 28% | 1189 hPa | 0 mm | - | 7 W/m² | - |
| 1787662131 | 27.78° C | 28% | 1189.3 hPa | 0 mm | - | 4 W/m² | - |
| 1787661827 | 27.78° C | 29% | 1189 hPa | 0 mm | - | 2 W/m² | - |
| 1787661526 | 27.78° C | 28% | 1189 hPa | 0 mm | - | 1 W/m² | - |
| 1787661225 | 27.78° C | 28% | 1189.1 hPa | 0 mm | - | 0 W/m² | - |
| 1787660924 | 27.78° C | 28% | 1189.3 hPa | 0 mm | - | 0 W/m² | - |
| 1787660619 | 27.78° C | 28% | 1188.8 hPa | 0 mm | - | 0 W/m² | - |
| 1787660314 | 27.78° C | 28% | 1188.7 hPa | 0 mm | - | 0 W/m² | - |
| 1787660010 | 28.33° C | 28% | 1188.8 hPa | 0 mm | - | 0 W/m² | - |
| 1787659707 | 28.33° C | 28% | 1188.8 hPa | 0 mm | - | 0 W/m² | - |
| 1787659402 | 28.33° C | 28% | 1188.7 hPa | 0 mm | - | 0 W/m² | - |
| 1787659101 | 28.33° C | 28% | 1188.7 hPa | 0 mm | - | 0 W/m² | - |
* Rain latest hour (hover to see other rain measurements)
** Current wind speed in m/s (hover to see current wind gust speed)